Regional Weather Roundup
Issued by NWS

Home | Current Version | Previous Version | Text Only | Print | Product List | Glossary On
Versions: 1 2 3 4 5 6 7 8 9 10 11 12 13 14 15 16 17 18 19 20 21 22 23 24 25 26 27 28 29 30 31 32 33 34 35 36 37 38 39 40 41 42 43 44 45 46 47 48 49 50
295
ASUS44 KJAN 100310
RWRMS

MISSISSIPPI HOURLY WEATHER ROUNDUP
NATIONAL WEATHER SERVICE JACKSON MS
900 PM CST TUE FEB 09 2016

NOTE: "FAIR: INDICATES FEW OR NO CLOUDS BELOW 12,000 FEET WITH NO
SIGNIFICANT WEATHER AND/OR OBSTRUCTIONS TO VISIBILITY.

MSZ001>002-007>008-010>013-018>021-025>028-034>036-100400-
NORTHWEST MISSISSIPPI

CITY           SKY/WX    TMP DP  RH WIND       PRES   REMARKS
CLEVELAND      FAIR      32  23  68 N6        30.20R WCI  26
GREENWOOD      CLEAR     31  18  58 N6        30.19R WCI  25
GREENVILLE     CLEAR     34  19  54 N9        30.19R WCI  27
OLIVE BRANCH   CLEAR     28  14  54 NW6       30.16S WCI  22
OXFORD         FAIR      28  12  50 NW8       30.18R WCI  20
TUNICA         CLEAR     27  14  59 NW6       30.19S WCI  20
$$

MSZ003>006-009-014>017-022>024-029>033-037>039-100400-
NORTHEAST MISSISSIPPI

CITY           SKY/WX    TMP DP  RH WIND       PRES   REMARKS
COLUMBUS AFB   CLEAR     32  15  48 N17       30.16R WCI  21
CORINTH        FAIR      27  14  59 W3        30.13R
GOLDN TRIANGLE CLEAR     34  12  40 NW10      30.14R WCI  26
STARKVILLE     FAIR      32  16  51 NW6       30.16R WCI  26
TUPELO         CLEAR     29  12  49 NW3       30.16R
$$

MSZ040-058-100400-
CENTRAL MISSISSIPPI

CITY           SKY/WX    TMP DP  RH WIND       PRES   REMARKS
JACKSON INTL   CLEAR     44  17  33 N9        30.13R
JACKSON HAWKNS CLEAR     43  15  32 N9        30.14R
MERIDIAN KEY   CLEAR     33  22  63 NW5       30.13R WCI  29
MERIDIAN NAS   CLEAR     33  20  58 N8        30.14R WCI  26
VICKSBURG      CLEAR     45  20  36 NW6       30.18R
$$

MSZ059>079-100400-
SOUTH MISSISSIPPI

CITY           SKY/WX    TMP DP  RH WIND       PRES   REMARKS
BROOKHAVEN     FAIR      43  21  42 W3        30.16R
HATTIESBURG    PTCLDY    39  22  50 SW5       30.14R
MCCOMB         CLEAR     40  24  53 W5        30.15R
NATCHEZ        CLEAR     46  19  34 NW12      30.18R
PINE BELT      PTCLDY    34  21  60 W3        30.14R
$$

MSZ080>082-100400-
COASTAL MISSISSIPPI

CITY           SKY/WX    TMP DP  RH WIND       PRES   REMARKS
BILOXI         PTCLDY    43  24  46 W2        30.15R
PASCAGOULA     CLEAR     36  27  69 W3        30.16R
GULFPORT       CLEAR     41  23  48 W5        30.16R
$$




USA.gov is the U.S. government's official web portal to all federal, state and local government web resources and services.